Track YAOGAN 20A now! 10-day predictions YAOGAN 20A is classified as:
1 40109U 14047A 23089.93876948 .00000001 00000-0 12135-3 0 9992 2 40109 63.3896 163.4448 0286204 9.2595 351.3551 13.45249443424511